Lid_Strength_Index
2 7 8 8 13 14 16 14 12 11 12 11 9 10 8 6 8 11 4 2 1 1 0 -0 -1 -1 -1 -1 -1 -1 -1 -1 -1 -1 -1 -1 -1 -1 -1 -1 -1 -1 -1 -1 -1 -1 -2 -1 -1
3 6 10 11 15 17 16 12 10 12 10 9 9 9 7 7 5 4 3 2 1 0 0 0 -1 -1 -1 -1 -1 -1 -1 -1 -1 -1 -1 -1 -1 -1 -1 -1 -1 -1 -1 -1 -2 -2 -1 -1 -1
1 6 12 13 15 16 14 11 11 10 9 10 10 7 6 6 4 3 2 1 0 1 0 0 -1 -1 -1 -1 -1 -1 -1 -1 -1 -1 -1 -1 -1 -1 -1 -1 -1 -2 -2 -2 -2 -2 -2 -1 -1
6 7 10 15 15 13 11 10 10 10 9 9 9 10 5 3 3 2 2 1 1 1 0 -0 -1 -1 -1 -1 -1 -1 -1 -1 -1 -1 -1 -1 -1 -1 -1 -1 -1 -2 -2 -2 -2 -2 -2 -2 -1
7 11 14 17 15 12 9 9 10 11 11 10 10 10 8 4 2 1 2 1 1 1 0 -0 -1 -1 -1 -1 -1 -1 -1 -1 -1 -1 -1 -1 -1 -1 -1 -1 -1 -2 -2 -2 -2 -2 -2 -2 -1
9 12 16 16 14 11 9 9 10 10 10 9 10 10 7 3 2 2 2 2 1 1 0 0 -1 -1 -1 -1 -1 -1 -1 -1 -1 -1 -1 -1 -1 -1 -1 -1 -1 -2 -2 -2 -2 -2 -2 -2 -2
9 12 15 15 13 11 8 7 8 10 10 9 9 9 6 4 2 2 3 2 1 0 1 0 0 -0 -1 -1 -1 -1 -1 -0 -0 -0 -1 -1 -1 -1 -1 -1 -1 -2 -2 -2 -2 -2 -2 -2 -2
6 10 12 13 12 11 7 7 8 8 8 6 7 9 9 5 2 2 2 3 1 1 1 1 0 0 0 0 -1 -1 -1 -1 -1 -1 -1 -1 -1 -1 -1 -1 -1 -2 -2 -2 -2 -2 -1 -2 -2
8 11 13 11 11 10 8 8 6 5 6 6 8 8 6 4 4 2 3 3 2 1 1 1 1 0 0 0 -0 -1 -1 -1 -1 -1 -1 -0 0 0 -0 -1 -1 -2 -2 -2 -1 -1 -1 -1 -1
10 14 11 8 8 9 8 7 6 6 7 6 7 7 6 5 5 5 4 4 3 3 2 1 1 1 0 0 0 0 0 0 0 0 0 0 1 1 -0 -1 -1 -2 -2 -1 -1 -1 -1 -1 0
10 13 10 9 7 7 8 8 6 6 8 6 6 8 7 7 7 7 4 3 3 2 2 1 1 0 0 0 0 0 -0 0 0 0 0 1 0 0 0 1 0 0 -1 0 -0 -0 0 0 0
13 11 9 8 8 8 9 7 8 7 6 5 5 5 7 7 8 8 7 5 3 3 2 1 1 1 0 0 0 0 0 0 0 0 0 0 0 0 0 0 0 0 1 0 0 0 0 0 0
13 12 11 10 10 10 8 9 8 9 6 5 4 5 5 6 7 8 6 5 2 3 2 1 1 1 1 1 0 0 0 0 0 0 -0 0 0 1 0 0 1 1 1 0 1 0 0 0 0
12 12 12 12 12 11 11 11 10 9 8 7 6 5 5 5 5 7 6 6 4 2 2 1 1 1 1 1 1 1 0 0 0 0 0 -0 0 0 0 2 2 2 2 2 1 0 0 0 0
11 13 12 12 11 11 10 12 12 9 8 9 8 7 7 5 4 4 5 5 5 5 3 2 1 1 1 1 1 1 1 0 1 0 0 0 0 1 1 2 3 2 3 4 3 2 1 1 2
13 14 16 12 10 10 10 14 10 10 10 10 9 9 8 7 5 4 4 6 4 5 4 3 1 1 2 2 1 0 0 0 1 1 0 -0 0 1 3 4 4 4 4 4 4 3 2 2 3
15 18 16 13 11 12 11 14 11 10 11 11 11 10 10 9 8 7 5 5 5 5 4 3 1 2 2 2 1 1 1 1 1 1 0 0 0 1 2 3 3 4 4 4 4 4 3 3 3
17 17 15 15 12 12 13 13 10 9 10 10 11 11 10 10 9 8 7 5 5 5 4 4 2 1 2 1 2 1 1 1 1 1 0 1 1 1 2 3 3 3 4 4 4 4 3 3 3
13 14 15 13 12 13 13 13 12 11 10 11 10 10 10 10 9 8 8 7 5 5 4 4 2 2 2 2 2 2 2 2 1 1 1 1 1 2 3 2 3 3 4 4 4 4 4 4 4
13 14 15 12 10 11 13 13 12 12 11 11 10 10 10 9 9 9 9 8 7 6 6 4 2 2 2 2 1 2 2 2 1 1 2 1 1 1 2 3 2 3 3 4 4 4 5 5 4
14 14 14 13 11 11 13 13 13 11 11 10 10 10 9 10 10 9 8 9 9 7 6 6 2 2 2 1 2 4 3 3 3 3 2 2 2 1 1 2 2 2 2 3 4 4 4 5 3
15 11 11 12 14 17 12 19 14 13 13 11 11 11 11 10 8 7 7 7 7 7 7 6 2 2 2 1 2 2 3 3 3 2 3 3 1 1 0 1 2 2 2 3 3 4 5 3 3
13 10 12 12 14 16 15 18 17 13 13 12 12 9 8 8 7 7 6 6 5 5 6 6 3 2 2 2 2 2 4 4 4 3 2 2 1 1 1 1 2 2 2 3 3 4 3 4 4
9 11 13 14 16 20 16 16 18 16 14 13 9 8 7 7 7 7 6 6 5 5 5 5 3 2 2 2 2 2 3 4 4 3 3 2 2 1 1 2 2 2 3 3 3 3 3 4 5
12 15 19 20 19 19 14 15 16 13 10 9 8 8 7 7 8 8 8 7 5 5 4 4 4 3 2 2 2 3 3 4 3 3 3 3 2 2 2 2 2 3 3 3 3 2 4 4 4
13 14 18 21 20 18 13 18 16 11 8 7 7 7 7 8 8 7 7 7 5 4 4 5 4 3 2 2 2 2 4 4 2 2 2 2 2 2 2 2 2 2 3 3 2 3 3 4 4
13 15 13 16 16 18 16 14 11 9 8 8 7 7 7 7 7 7 6 6 5 5 5 5 3 4 2 2 2 2 3 3 2 2 2 2 2 2 2 2 2 3 3 2 3 3 2 3 4
11 10 16 17 20 21 17 16 15 11 10 9 8 8 7 6 6 6 6 5 4 5 5 6 4 4 2 3 3 3 2 2 2 2 2 2 2 2 2 2 3 3 3 3 3 4 4 4 4
13 14 14 15 16 20 21 17 11 11 10 10 9 8 7 7 6 5 5 4 5 5 7 7 4 3 3 4 3 3 2 2 2 2 2 2 2 2 2 2 3 2 3 3 4 4 4 4 4
11 12 13 18 18 16 17 17 8 9 9 8 8 7 6 6 5 5 5 5 5 5 7 7 5 6 2 3 3 2 2 2 2 2 2 2 2 2 2 3 2 2 2 3 3 3 3 3 3